Oak Ridge, TN

4:12 AM EST on November 18, 2019 (GMT -0500)
Oak Ridge

Weather History for KOQT - September, 2019

Change the Weather History Date:

Tuesday, September 24, 2019

  Actual Average (WUND) Record (WUND)
Temperature  
Mean Temperature 75 °F -  
Max Temperature 86 °F - - (-1)
Min Temperature 64 °F - - (-1)
Cooling Degree Days 10    
Growing Degree Days 25 (Base 50)    
Moisture  
Dew Point 59 °F    
Average Humidity 66    
Maximum Humidity 93    
Minimum Humidity 32    
Precipitation  
Precipitation 0.00 in - - ()
Sea Level Pressure  
Sea Level Pressure 29.95 in    
Wind  
Wind Speed 1 mph ()    
Max Wind Speed 7 mph    
Max Gust Speed -    
Averages and records for this station are not official NWS values.
T = Trace of Precipitation, MM = Missing Value Source: Averaged Metar Reports

Daily Weather History Graph

Daily Weather History Graph

Search for Another Location

Airport or City:

Astronomy

Sep. 24, 2019 Rise Set
Actual Time 7:26 AM EDT 7:31 PM EDT
Civil Twilight 7:00 AM EDT 7:56 PM EDT
Nautical Twilight 6:30 AM EDT 8:26 PM EDT
Astronomical Twilight 6:00 AM EDT 8:56 PM EDT
Moon 2:21 AM EDT (9/24) 5:05 PM EDT (9/24)
Length of Visible Light 12h 56m
Length of Day
12h 04m
Waning Crescent, 23% of the Moon is Illuminated
Sep 24
Waning Crescent
Sep 28
New
Oct 5
First Quarter
Oct 13
Full
Oct 21
Last Quarter

Hourly Weather History & Observations

Time (EDT) Temp. Heat Index Dew Point Humidity Pressure Visibility Wind Dir Wind Speed Gust Speed Precip Events Conditions
12:53 AM 70.0 °F - 66.0 °F 87% 29.98 in - Calm Calm - N/A   Mostly Cloudy
1:53 AM 70.0 °F - 66.0 °F 87% 29.97 in - Calm Calm - N/A   Overcast
2:53 AM 69.1 °F - 64.9 °F 87% 29.96 in - Calm Calm - N/A   Partly Cloudy
3:53 AM 68.0 °F - 64.9 °F 90% 29.95 in - Calm Calm - N/A   Scattered Clouds
4:09 AM 68.0 °F - 64.9 °F 90% 29.99 in - Calm Calm - N/A   Mostly Cloudy
4:53 AM 66.9 °F - 64.9 °F 93% 29.95 in - Calm Calm - N/A   Overcast
5:34 AM 68.0 °F - 64.9 °F 90% 29.99 in - Calm Calm - N/A   Mostly Cloudy
5:53 AM 66.9 °F - 64.9 °F 93% 29.95 in - Calm Calm - N/A   Scattered Clouds
7:53 AM 66.9 °F - 63.0 °F 87% 29.98 in - Calm Calm - N/A   Clear
8:53 AM 69.1 °F - 63.0 °F 81% 29.99 in - Calm Calm - N/A   Clear
10:53 AM 73.9 °F - 61.0 °F 64% 30.00 in - ENE 6.9 mph - N/A   Clear
11:53 AM 78.1 °F - 60.1 °F 54% 29.98 in - Variable 3.5 mph - N/A   Clear
12:53 PM 81.0 °F 81.1 °F 57.9 °F 45% 29.96 in - Variable 5.8 mph - N/A   Clear
1:53 PM 82.0 °F 81.4 °F 55.0 °F 39% 29.94 in - Variable 3.5 mph - N/A   Clear
4:53 PM 84.9 °F 83.2 °F 53.1 °F 33% 29.89 in - Variable 3.5 mph - N/A   Clear
5:53 PM 84.0 °F - 51.1 °F 32% 29.89 in - Variable 3.5 mph - N/A   Clear
6:53 PM 80.1 °F - 51.1 °F 36% 29.89 in - Calm Calm - N/A   Clear
7:53 PM 75.9 °F - 50.0 °F 40% 29.90 in - Calm Calm - N/A   Clear
8:53 PM 72.0 °F - 50.0 °F 46% 29.91 in - Calm Calm - N/A   Clear
9:53 PM 68.0 °F - 50.0 °F 52% 29.92 in - Calm Calm - N/A   Clear
10:53 PM 66.0 °F - 51.1 °F 59% 29.92 in - Calm Calm - N/A   Clear
11:53 PM 64.0 °F - 51.1 °F 63% 29.92 in - Calm Calm - N/A   Clear